Regional Weather Roundup
Issued by NWS

Home | Current Version | Previous Version | Graphics & Text | Print | Product List | Glossary On
Versions: 1 2 3 4 5 6 7 8 9 10 11 12 13 14 15 16 17 18 19 20 21 22 23 24 25 26 27 28 29 30 31 32 33 34 35 36 37 38 39 40 41 42 43 44 45 46 47 48 49 50
000
ASUS43 KMPX 301710
RWRMN
WEATHER ROUNDUP FOR MINNESOTA
NATIONAL WEATHER SERVICE TWIN CITIES/CHANHASSEN MN
1200 PM CDT TUE SEP 30 2014


NOTE: "FAIR" INDICATES FEW OR NO CLOUDS BELOW 12,000 FEET WITH NO
SIGNIFICANT WEATHER AND/OR OBSTRUCTIONS TO VISIBILITY. N/A MEANS
CURRENT SKY AND/OR WEATHER CONDITIONS ARE NOT AVAILABLE.

MNZ060>063-068>070-301800-
   Twin Cities Metro

CITY           SKY/WX    TMP DP  RH WIND       PRES   REMARKS
TWIN CITIES    PTSUNNY   50  41  71 E10       30.03S
ST PAUL        MOSUNNY   50  41  71 E12       30.04F
CRYSTAL        MOSUNNY   50  40  68 E9        30.01F
BLAINE           N/A     50  45  81 E13       30.03F
LAKEVILLE      MOSUNNY   50  43  76 E10G16    30.01F
EDEN PRAIRIE   MOSUNNY   50  42  74 E12       30.00F
SOUTH ST PAUL  SUNNY     50  40  68 SE10      30.03F
LAKE ELMO      CLOUDY    48  41  76 E10       30.04F
$$
MNZ001>005-007-008-013>017-022>024-027-028-301800-
   Northwest Minnesota

CITY           SKY/WX    TMP DP  RH WIND       PRES   REMARKS
BEMIDJI        CLOUDY    45  40  83 SE12      29.97F
HALLOCK        SUNNY     55  46  71 SE14G21   29.88F
ROSEAU         PTSUNNY   52  43  71 SE17      29.95F
WARROAD        PTSUNNY   48  43  81 SE10      29.97F
THIEF RVR FALL SUNNY     52  43  71 E18       29.90F
CROOKSTON      SUNNY     55  45  67 SE16G23   29.88F
FOSSTON        SUNNY     54  43  66 E13G20    29.91F
DETROIT LAKES  SUNNY     52  43  71 SE17G23   29.89F
PARK RAPIDS    PTSUNNY   47  40  76 SE14G23   29.96F
MAHNOMEN       FAIR      52  41  65 SE17G24   29.89F
$$
MNZ006-009>011-018-025>026-301800-
   North Central Minnesota

CITY           SKY/WX    TMP DP  RH WIND       PRES   REMARKS
BAUDETTE       MOSUNNY   49  41  74 SE13G23   29.99F
FLAG ISLAND    CLOUDY    46  41  81 SE9       29.98F
INTL FALLS     CLOUDY    47  41  80 SE12      30.05F
WASKISH        SUNNY     52  45  76 E6G17     29.98F
BIG FORK       CLOUDY    46  41  81 SE7G16    30.04F
LONGVILLE      CLOUDY    45  41  87 SE7       30.01F
GRAND RAPIDS   CLOUDY    45  37  76 SE9       30.04F
CRANE LAKE     CLOUDY    45  39  81 S7        30.10F
ORR            CLOUDY    45  37  76 SE5       30.05F
COOK           CLOUDY    45  39  81 SE8       30.08F
WALKER         CLOUDY    44  39  83 E7        29.99F
$$
MNZ012-019>021-037-301800-
   Northeast Minnesota

CITY           SKY/WX    TMP DP  RH WIND       PRES   REMARKS
DULUTH         CLOUDY    45  39  79 E20       30.08F
ELY            CLOUDY    46  39  76 S8        30.09F
HIBBING        CLOUDY    47  40  76 SE12      30.07F
EVELETH        CLOUDY    45  39  81 SE8       30.08F
DULUTH HARBOR  CLOUDY   N/A N/A N/A E15       30.11F
TWO HARBORS    CLOUDY    45  39  81 E10       30.10S
SILVER BAY     SUNNY     43  41  93 E10       30.11F
GRAND MARAIS     N/A     49  39  68 E9        30.15F
G MARAIS ARPRT SUNNY     48  36  61 E12G17    30.12F
$$
MNZ029>031-032-039>041-046>048-054>057-064-301800-
   West Central Minnesota

CITY           SKY/WX    TMP DP  RH WIND       PRES   REMARKS
FERGUS FALLS   PTSUNNY   50  39  66 SE18G25   29.89F
WHEATON        CLOUDY    50  43  76 E21G26    29.87F
MORRIS         PTSUNNY   52  43  71 SE23      29.88F
ALEXANDRIA     PTSUNNY   48  42  80 E15       29.94F
ELBOW LAKE     PTSUNNY   48  43  81 E17G26    29.88F
WADENA         SUNNY     48  41  76 SE15G22   29.94F
GLENWOOD       PTSUNNY   48  43  81 E14G20    29.95S
APPLETON       CLOUDY    50  43  76 E21       29.88F
BENSON         CLOUDY    50  43  76 SE14G23   29.90F
ORTONVILLE     CLOUDY    46  43  87 SE17G23   29.88R
MADISON        CLOUDY    52  45  76 SE14      29.89S
WILLMAR        FAIR      50  41  71 E18G28    29.95F
$$
MNZ033>034-036-042>043-049>051-058-059-301800-
   Central Minnesota

CITY           SKY/WX    TMP DP  RH WIND       PRES   REMARKS
ST CLOUD       MOSUNNY   51  41  68 E10       30.00F
SAUK CENTRE    PTSUNNY   47  42  82 E12G22    29.96F
PAYNESVILLE    PTSUNNY   46  41  82 NE13      29.97F
AITKIN         CLOUDY    48  41  76 E9        30.02F
PINE RIVER     CLOUDY    46  41  81 E14       30.03F
BRAINERD       CLOUDY    45  40  82 SE10G18   30.02F
STAPLES        PTSUNNY   46  39  76 SE9G16    29.98F
LONG PRAIRIE   PTSUNNY   46  41  81 E16G22    29.96F
LITTLE FALLS   PTSUNNY   48  39  71 E13G20    29.99F
LITCHFIELD     PTSUNNY   50  45  81 E16       29.98F
BUFFALO        MOSUNNY   50  41  69 E9G17     30.01F
MAPLE LAKE     MOSUNNY   51  44  77 E7        30.02S
$$
MNZ037-044-045-052-053-301800-
   East Central Minnesota

CITY           SKY/WX    TMP DP  RH WIND       PRES   REMARKS
PRINCETON      CLOUDY    48  41  76 NE12G17   30.03F
MORA           CLOUDY    45  41  87 E8G16     30.07S
CAMBRIDGE      PTSUNNY   52  39  62 SE5       30.03F
RUSH CITY      LGT RAIN  47  40  78 E7        30.06F
MOOSE LAKE     CLOUDY    45  39  81 NE7       30.05F
HINCKLEY       CLOUDY    45  41  87 E13       30.06F
CLOQUET        CLOUDY    45  39  81 E9G16     30.08F
MCGREGOR       CLOUDY    45  41  87 E10G16    30.05F
$$
MNZ071>073-080-081-089-090-097-098-301800-
   Southwest Minnesota

CITY           SKY/WX    TMP DP  RH WIND       PRES   REMARKS
MONTEVIDEO     CLOUDY    46  45  93 SE21G28   29.91F
GRANITE FALLS  CLOUDY    47  43  86 E12G21    29.92F
CANBY          CLOUDY    49  46  89 SE16G23   29.89S
MARSHALL       CLOUDY    48  43  81 SE18      29.88F
REDWOOD FALLS  CLOUDY    50  44  80 E13       29.92F
OLIVIA         CLOUDY    50  43  76 E14G24    29.93F
PIPESTONE      CLOUDY    55  52  88 SE16G23   29.84F
WINDOM         CLOUDY    54  48  82 E16       29.91F
WORTHINGTON    CLOUDY    55  52  88 SE14G21   29.89F
JACKSON        CLOUDY    54  50  87 SE16G23   29.93F
TRACY          CLOUDY    51  49  92 E14G20    29.89F
SLAYTON        CLOUDY    53  52  96 SE13      29.89F
$$
MNZ065>067-074>077-082>085-091>093-301800-
   South Central Minnesota

CITY           SKY/WX    TMP DP  RH WIND       PRES   REMARKS
MANKATO        CLOUDY    48  39  71 SE15      29.99S
NEW ULM        CLOUDY    50  46  87 E15       29.96F
ST JAMES       CLOUDY    54  46  76 E13G18    29.96F
FAIRMONT       CLOUDY    54  46  76 SE15      29.95F
GLENCOE        CLOUDY    50  41  71 E12       29.99F
FARIBAULT      CLOUDY    48  43  81 E9G16     30.02S
OWATONNA       PTSUNNY   50  45  81 E7        30.01S
WASECA         CLOUDY    48  41  76 E12       30.01F
ALBERT LEA     CLOUDY    52  48  87 E10       30.00S
$$
MNZ078>079-086>088-094>096-301800-
   Southeast Minnesota

CITY           SKY/WX    TMP DP  RH WIND       PRES   REMARKS
ROCHESTER      MOSUNNY   50  44  80 SE9       30.04S
RED WING       MOSUNNY   52  41  66 E10       30.03F
STANTON        MOSUNNY   50  42  74 E9        30.01F
DODGE CENTER   MOSUNNY   50  45  81 SE15      30.02F
WINONA         CLOUDY    48  43  81 SE8       30.07S
AUSTIN         CLOUDY    48  45  87 E12       30.01S
PRESTON        CLOUDY    48  43  83 SE9       30.04F
$$
ABBREVIATIONS USED IN REMARKS
   TC - TEMPERATURES IN CELSIUS
  WCI - WIND CHILL INDEX
   HX - HEAT INDEX
  VSB - VISIBILITY
$$


USA.gov is the U.S. government's official web portal to all federal, state and local government web resources and services.